When you browse on this site, cookies collect data to enhance your experience and personalize the content and advertising you see.
Visit our Privacy Policy to learn more. By continuing to use the site, you agree to this use of cookies and data.
  • Em Portugal
  • Lista de países
  • Para 7 dias
  • Temperatura da água
  • Mapas de satélite
  • Mapa do tempo
  • Widgets de tempo
  • user-avatar
    Iniciar Sessão

    Previsão horária em Brusbeno

    Hoje, 21 Maio, Terça-feira

    Tempo Temperatura Precipitação Vento Pressão Humidade
    00:00 +17°C° 0 mm 2 m/s 767 mmHg 92%
    01:00 +17°C° 0 mm 2 m/s 767 mmHg 93%
    02:00 +17°C° 0 mm 2 m/s 767 mmHg 93%
    03:00 +17°C° 0 mm 2 m/s 767 mmHg 93%
    04:00 +18°C° 0 mm 1 m/s 767 mmHg 94%
    05:00 +19°C° 0 mm 1 m/s 767 mmHg 93%
    06:00 +19°C° 0 mm 1 m/s 767 mmHg 93%
    07:00 +19°C° 0 mm 1 m/s 768 mmHg 92%
    08:00 +21°C° 0.1 mm 1 m/s 768 mmHg 85%
    09:00 +22°C° 0.1 mm 1 m/s 768 mmHg 77%
    10:00 +24°C° 0 mm 2 m/s 768 mmHg 68%
    11:00 +25°C° 0 mm 2 m/s 767 mmHg 62%
    12:00 +26°C° 0 mm 3 m/s 767 mmHg 57%
    13:00 +26°C° 0 mm 3 m/s 767 mmHg 52%
    14:00 +26°C° 0 mm 3 m/s 766 mmHg 54%
    15:00 +25°C° 0 mm 3 m/s 766 mmHg 56%
    16:00 +24°C° 0 mm 2 m/s 766 mmHg 57%
    17:00 +23°C° 0 mm 2 m/s 766 mmHg 62%
    18:00 +21°C° 0 mm 2 m/s 767 mmHg 66%
    19:00 +20°C° 0 mm 2 m/s 767 mmHg 71%
    20:00 +19°C° 0 mm 2 m/s 767 mmHg 73%
    21:00 +20°C° 0 mm 1 m/s 768 mmHg 75%
    22:00 +19°C° 0 mm 1 m/s 768 mmHg 79%
    23:00 +19°C° 0 mm 1 m/s 768 mmHg 80%

    Amanhã, 22 Maio, Quarta-feira

    Tempo Temperatura Precipitação Vento Pressão Humidade
    00:00 +19°C° 0 mm 1 m/s 768 mmHg 82%
    01:00 +18°C° 0 mm 1 m/s 768 mmHg 84%
    02:00 +18°C° 0 mm 1 m/s 768 mmHg 85%
    03:00 +17°C° 0 mm 2 m/s 768 mmHg 86%
    04:00 +16°C° 0 mm 2 m/s 768 mmHg 87%
    05:00 +16°C° 0 mm 2 m/s 768 mmHg 87%
    06:00 +16°C° 0 mm 2 m/s 768 mmHg 87%
    07:00 +16°C° 0 mm 2 m/s 768 mmHg 87%
    08:00 +19°C° 0 mm 2 m/s 768 mmHg 77%
    09:00 +21°C° 0 mm 2 m/s 768 mmHg 67%
    10:00 +24°C° 0 mm 2 m/s 768 mmHg 58%
    11:00 +25°C° 0 mm 3 m/s 768 mmHg 55%
    12:00 +26°C° 0 mm 3 m/s 767 mmHg 52%
    13:00 +27°C° 0 mm 3 m/s 767 mmHg 49%
    14:00 +26°C° 0 mm 3 m/s 767 mmHg 53%
    15:00 +25°C° 0 mm 4 m/s 767 mmHg 57%
    16:00 +25°C° 0 mm 4 m/s 767 mmHg 61%
    17:00 +22°C° 0 mm 3 m/s 767 mmHg 67%
    18:00 +21°C° 0 mm 3 m/s 767 mmHg 72%
    19:00 +20°C° 0 mm 3 m/s 767 mmHg 78%
    20:00 +19°C° 0 mm 3 m/s 768 mmHg 79%
    21:00 +19°C° 0 mm 3 m/s 768 mmHg 80%
    22:00 +18°C° 0 mm 2 m/s 768 mmHg 82%
    23:00 +18°C° 0 mm 2 m/s 768 mmHg 83%

    Depois de amanhã, 23 Maio, Quinta-feira

    Tempo Temperatura Precipitação Vento Pressão Humidade
    00:00 +18°C° 0 mm 2 m/s 768 mmHg 84%
    01:00 +17°C° 0 mm 2 m/s 768 mmHg 85%
    02:00 +17°C° 0 mm 2 m/s 768 mmHg 86%
    03:00 +16°C° 0 mm 2 m/s 767 mmHg 86%
    04:00 +16°C° 0 mm 2 m/s 767 mmHg 87%
    05:00 +16°C° 0 mm 2 m/s 767 mmHg 87%
    06:00 +16°C° 0 mm 2 m/s 768 mmHg 87%
    07:00 +16°C° 0 mm 2 m/s 768 mmHg 87%
    08:00 +18°C° 0 mm 3 m/s 768 mmHg 78%
    09:00 +20°C° 0 mm 3 m/s 768 mmHg 68%
    10:00 +24°C° 0 mm 3 m/s 768 mmHg 58%
    11:00 +24°C° 0.1 mm 3 m/s 767 mmHg 57%
    12:00 +25°C° 0.1 mm 4 m/s 767 mmHg 56%
    13:00 +25°C° 0.1 mm 4 m/s 766 mmHg 55%
    14:00 +25°C° 0.1 mm 4 m/s 766 mmHg 59%
    15:00 +23°C° 0.1 mm 4 m/s 766 mmHg 64%
    16:00 +22°C° 0.1 mm 4 m/s 765 mmHg 68%
    17:00 +21°C° 0 mm 3 m/s 766 mmHg 71%
    18:00 +20°C° 0 mm 3 m/s 766 mmHg 74%
    19:00 +19°C° 0 mm 2 m/s 767 mmHg 77%
    20:00 +19°C° 0 mm 2 m/s 767 mmHg 78%
    21:00 +18°C° 0 mm 2 m/s 767 mmHg 79%
    22:00 +18°C° 0 mm 2 m/s 767 mmHg 81%
    23:00 +17°C° 0 mm 2 m/s 767 mmHg 82%

    24 Maio, Sexta-feira

    Tempo Temperatura Precipitação Vento Pressão Humidade
    00:00 +17°C° 0 mm 2 m/s 766 mmHg 83%
    01:00 +17°C° 0 mm 2 m/s 766 mmHg 84%
    02:00 +16°C° 0 mm 2 m/s 766 mmHg 85%
    03:00 +16°C° 0 mm 2 m/s 766 mmHg 86%
    04:00 +15°C° 0 mm 2 m/s 765 mmHg 86%
    05:00 +15°C° 0 mm 2 m/s 766 mmHg 86%
    06:00 +15°C° 0 mm 2 m/s 766 mmHg 85%
    07:00 +15°C° 0 mm 2 m/s 766 mmHg 85%
    08:00 +18°C° 0 mm 2 m/s 766 mmHg 76%
    09:00 +20°C° 0 mm 2 m/s 766 mmHg 66%
    10:00 +23°C° 0 mm 2 m/s 766 mmHg 57%
    11:00 +24°C° 0 mm 2 m/s 765 mmHg 53%
    12:00 +25°C° 0 mm 2 m/s 765 mmHg 50%
    13:00 +26°C° 0 mm 2 m/s 764 mmHg 46%
    14:00 +26°C° 0 mm 2 m/s 764 mmHg 51%
    15:00 +25°C° 0 mm 3 m/s 763 mmHg 55%
    16:00 +24°C° 0 mm 3 m/s 763 mmHg 60%
    17:00 +22°C° 0 mm 3 m/s 764 mmHg 68%
    18:00 +21°C° 0 mm 2 m/s 764 mmHg 75%
    19:00 +19°C° 0 mm 2 m/s 764 mmHg 83%
    20:00 +19°C° 0 mm 2 m/s 765 mmHg 84%
    21:00 +19°C° 0 mm 1 m/s 765 mmHg 86%
    22:00 +19°C° 0 mm 1 m/s 765 mmHg 87%
    23:00 +18°C° 0 mm 1 m/s 765 mmHg 88%

    25 Maio, Sábado

    Tempo Temperatura Precipitação Vento Pressão Humidade
    00:00 +17°C° 0 mm 2 m/s 764 mmHg 90%
    01:00 +16°C° 0 mm 2 m/s 764 mmHg 91%
    02:00 +16°C° 0 mm 2 m/s 764 mmHg 91%
    03:00 +16°C° 0 mm 2 m/s 764 mmHg 91%
    04:00 +15°C° 0 mm 2 m/s 764 mmHg 90%
    05:00 +15°C° 0 mm 2 m/s 764 mmHg 89%
    06:00 +15°C° 0 mm 2 m/s 764 mmHg 88%
    07:00 +15°C° 0 mm 2 m/s 764 mmHg 87%
    08:00 +18°C° 0 mm 2 m/s 764 mmHg 77%
    09:00 +21°C° 0 mm 1 m/s 764 mmHg 66%
    10:00 +24°C° 0 mm 1 m/s 764 mmHg 55%
    11:00 +25°C° 0 mm 1 m/s 764 mmHg 49%
    12:00 +26°C° 0 mm 1 m/s 763 mmHg 44%
    13:00 +27°C° 0 mm 1 m/s 762 mmHg 38%
    14:00 +26°C° 0 mm 1 m/s 762 mmHg 42%
    15:00 +26°C° 0 mm 2 m/s 762 mmHg 46%
    16:00 +25°C° 0 mm 2 m/s 762 mmHg 49%
    17:00 +23°C° 0 mm 2 m/s 762 mmHg 60%
    18:00 +20°C° 0 mm 2 m/s 762 mmHg 70%
    19:00 +19°C° 0 mm 2 m/s 763 mmHg 81%
    20:00 +20°C° 0 mm 1 m/s 763 mmHg 83%
    21:00 +19°C° 0 mm 1 m/s 763 mmHg 85%
    22:00 +17°C° 0 mm 0 m/s 763 mmHg 87%
    23:00 +18°C° 0 mm 1 m/s 763 mmHg 89%

    26 Maio, Domingo

    Tempo Temperatura Precipitação Vento Pressão Humidade
    00:00 +18°C° 0 mm 1 m/s 763 mmHg 90%
    01:00 +18°C° 0 mm 1 m/s 763 mmHg 91%
    02:00 +16°C° 0 mm 2 m/s 762 mmHg 92%
    03:00 +16°C° 0 mm 2 m/s 762 mmHg 92%
    04:00 +16°C° 0 mm 2 m/s 762 mmHg 93%
    05:00 +16°C° 0 mm 2 m/s 762 mmHg 91%
    06:00 +15°C° 0 mm 2 m/s 763 mmHg 89%
    07:00 +15°C° 0 mm 2 m/s 763 mmHg 88%
    08:00 +18°C° 0 mm 2 m/s 763 mmHg 76%
    09:00 +20°C° 0 mm 2 m/s 763 mmHg 65%
    10:00 +24°C° 0 mm 1 m/s 762 mmHg 53%
    11:00 +25°C° 0 mm 2 m/s 762 mmHg 47%
    12:00 +26°C° 0 mm 2 m/s 761 mmHg 40%
    13:00 +28°C° 0 mm 2 m/s 760 mmHg 34%
    14:00 +27°C° 0 mm 2 m/s 760 mmHg 39%
    15:00 +26°C° 0 mm 2 m/s 759 mmHg 44%
    16:00 +25°C° 0 mm 3 m/s 759 mmHg 49%
    17:00 +24°C° 0 mm 3 m/s 760 mmHg 53%
    18:00 +21°C° 0 mm 2 m/s 760 mmHg 56%
    19:00 +20°C° 0 mm 2 m/s 760 mmHg 59%
    20:00 +19°C° 0 mm 2 m/s 760 mmHg 58%
    21:00 +19°C° 0 mm 2 m/s 760 mmHg 56%
    22:00 +18°C° 0 mm 2 m/s 760 mmHg 55%
    23:00 +17°C° 0 mm 2 m/s 760 mmHg 55%
    Mostrar mais